Time,TemperatureF,DewpointF,PressureIn,WindDirection,WindDirectionDegrees,WindSpeedMPH,WindSpeedGustMPH,Humidity,HourlyPrecipIn,Conditions,Clouds,dailyrainin,SoftwareType,DateUTC
2013-01-13 00:03:00,59.0,54.0,-100.00,SSE,150,5.0,11.0,82,0.00,,,-99.99,,2013-01-13 05:03:00,
2013-01-13 00:12:00,59.0,54.0,-100.00,SSE,155,6.0,9.0,82,0.00,,,-99.99,,2013-01-13 05:12:00,
2013-01-13 00:22:00,58.0,53.0,-100.00,SSE,150,4.0,9.0,83,0.00,,,-99.99,,2013-01-13 05:22:00,
2013-01-13 00:32:00,59.0,53.0,-100.00,SSE,150,5.0,9.0,82,0.00,,,-99.99,,2013-01-13 05:32:00,
2013-01-13 00:42:00,59.0,53.0,-100.00,SSE,155,4.0,9.0,82,0.00,,,-99.99,,2013-01-13 05:42:00,
2013-01-13 00:52:00,59.0,53.0,-100.00,SE,140,4.0,9.0,82,0.00,,,-99.99,,2013-01-13 05:52:00,
2013-01-13 01:03:00,59.0,53.0,-100.00,SE,145,6.0,12.0,82,0.00,,,-99.99,,2013-01-13 06:03:00,
2013-01-13 01:12:00,59.0,53.0,-100.00,SSE,160,6.0,10.0,82,0.00,,,-99.99,,2013-01-13 06:12:00,
2013-01-13 01:22:00,59.0,53.0,-100.00,SE,145,5.0,9.0,82,0.00,,,-99.99,,2013-01-13 06:22:00,
2013-01-13 01:32:00,58.0,53.0,-100.00,SSE,150,4.0,8.0,83,0.00,,,-99.99,,2013-01-13 06:32:00,
2013-01-13 01:42:00,59.0,53.0,-100.00,SE,145,4.0,8.0,82,0.00,,,-99.99,,2013-01-13 06:42:00,
2013-01-13 01:52:00,59.0,54.0,-100.00,SSE,150,4.0,7.0,82,0.00,,,-99.99,,2013-01-13 06:52:00,
2013-01-13 02:02:00,59.0,53.0,-100.00,SSE,160,4.0,11.0,81,0.00,,,-99.99,,2013-01-13 07:02:00,
2013-01-13 02:12:00,59.0,53.0,-100.00,SE,145,7.0,12.0,80,0.00,,,-99.99,,2013-01-13 07:12:00,
2013-01-13 02:22:00,59.0,53.0,-100.00,SSE,160,5.0,12.0,80,0.00,,,-99.99,,2013-01-13 07:22:00,
2013-01-13 02:32:00,60.0,53.0,-100.00,SSE,155,4.0,11.0,79,0.00,,,-99.99,,2013-01-13 07:32:00,
2013-01-13 02:42:00,60.0,53.0,-100.00,South,180,5.0,10.0,79,0.00,,,-99.99,,2013-01-13 07:42:00,
2013-01-13 02:52:00,60.0,53.0,-100.00,South,185,4.0,9.0,79,0.00,,,-99.99,,2013-01-13 07:52:00,
2013-01-13 03:02:00,60.0,53.0,-100.00,South,180,4.0,7.0,79,0.00,,,-99.99,,2013-01-13 08:02:00,
2013-01-13 03:12:00,60.0,53.0,-100.00,SSE,165,3.0,9.0,79,0.00,,,-99.99,,2013-01-13 08:12:00,
2013-01-13 03:22:00,60.0,54.0,-100.00,SSW,195,3.0,11.0,79,0.00,,,-99.99,,2013-01-13 08:22:00,
2013-01-13 03:32:00,60.0,54.0,-100.00,South,170,4.0,8.0,79,0.00,,,-99.99,,2013-01-13 08:32:00,
2013-01-13 03:42:00,60.0,54.0,-100.00,South,185,3.0,9.0,80,0.00,,,-99.99,,2013-01-13 08:42:00,
2013-01-13 03:52:00,60.0,54.0,-100.00,South,170,6.0,10.0,79,0.00,,,-99.99,,2013-01-13 08:52:00,
2013-01-13 04:02:00,60.0,54.0,-100.00,South,180,4.0,11.0,80,0.00,,,-99.99,,2013-01-13 09:02:00,
2013-01-13 04:12:00,60.0,54.0,-100.00,South,170,4.0,11.0,80,0.00,,,-99.99,,2013-01-13 09:12:00,
2013-01-13 04:22:00,60.0,54.0,-100.00,SSE,165,5.0,11.0,79,0.00,,,-99.99,,2013-01-13 09:22:00,
2013-01-13 04:32:00,60.0,54.0,-100.00,SSW,200,4.0,9.0,79,0.00,,,-99.99,,2013-01-13 09:32:00,
2013-01-13 04:42:00,60.0,54.0,-100.00,SSW,195,4.0,9.0,80,0.00,,,-99.99,,2013-01-13 09:42:00,
2013-01-13 04:52:00,60.0,54.0,-100.00,SW,215,3.0,9.0,80,0.00,,,-99.99,,2013-01-13 09:52:00,
2013-01-13 05:03:00,60.0,54.0,-100.00,SW,215,4.0,10.0,80,0.00,,,-99.99,,2013-01-13 10:03:00,
2013-01-13 05:12:00,61.0,54.0,-100.00,SSW,205,6.0,10.0,79,0.00,,,-99.99,,2013-01-13 10:12:00,
2013-01-13 05:22:00,60.0,54.0,-100.00,SSW,205,4.0,11.0,80,0.00,,,-99.99,,2013-01-13 10:22:00,
2013-01-13 05:32:00,61.0,54.0,-100.00,SW,215,6.0,12.0,79,0.00,,,-99.99,,2013-01-13 10:32:00,
2013-01-13 05:42:00,61.0,54.0,-100.00,SSW,210,4.0,11.0,79,0.00,,,-99.99,,2013-01-13 10:42:00,
2013-01-13 05:52:00,61.0,54.0,-100.00,SSW,205,4.0,9.0,79,0.00,,,-99.99,,2013-01-13 10:52:00,
2013-01-13 06:02:00,61.0,55.0,-100.00,SW,215,6.0,12.0,78,0.00,,,-99.99,,2013-01-13 11:02:00,
2013-01-13 06:12:00,61.0,55.0,-100.00,SSW,195,4.0,9.0,79,0.00,,,-99.99,,2013-01-13 11:12:00,
2013-01-13 06:22:00,61.0,55.0,-100.00,SW,215,4.0,11.0,79,0.00,,,-99.99,,2013-01-13 11:22:00,
2013-01-13 06:33:00,61.0,55.0,-100.00,South,180,4.0,11.0,79,0.00,,,-99.99,,2013-01-13 11:33:00,
2013-01-13 06:42:00,61.0,55.0,-100.00,South,180,4.0,11.0,79,0.00,,,-99.99,,2013-01-13 11:42:00,
2013-01-13 06:52:00,61.0,55.0,-100.00,SSW,195,6.0,12.0,78,0.00,,,-99.99,,2013-01-13 11:52:00,
2013-01-13 07:03:00,62.0,55.0,-100.00,SW,215,6.0,14.0,77,0.00,,,-99.99,,2013-01-13 12:03:00,
2013-01-13 07:12:00,62.0,54.0,-100.00,SW,225,7.0,16.0,75,0.00,,,-99.99,,2013-01-13 12:12:00,
2013-01-13 07:22:00,63.0,54.0,-100.00,SW,230,7.0,17.0,73,0.00,,,-99.99,,2013-01-13 12:22:00,
2013-01-13 07:33:00,63.0,54.0,-100.00,SW,215,7.0,19.0,72,0.00,,,-99.99,,2013-01-13 12:33:00,
2013-01-13 07:42:00,64.0,54.0,-100.00,SW,225,11.0,25.0,70,0.00,,,-99.99,,2013-01-13 12:42:00,
2013-01-13 07:52:00,64.0,54.0,-100.00,SW,230,11.0,21.0,70,0.00,,,-99.99,,2013-01-13 12:52:00,
2013-01-13 08:03:00,64.0,54.0,-100.00,SW,235,11.0,25.0,69,0.00,,,-99.99,,2013-01-13 13:03:00,
2013-01-13 08:12:00,64.0,54.0,-100.00,SW,220,12.0,26.0,70,0.00,,,-99.99,,2013-01-13 13:12:00,
2013-01-13 08:22:00,64.0,54.0,-100.00,SW,230,14.0,25.0,70,0.00,,,-99.99,,2013-01-13 13:22:00,
2013-01-13 08:33:00,64.0,54.0,-100.00,WSW,245,14.0,22.0,71,0.00,,,-99.99,,2013-01-13 13:33:00,
2013-01-13 08:42:00,63.0,54.0,-100.00,SW,230,9.0,22.0,73,0.00,,,-99.99,,2013-01-13 13:42:00,
2013-01-13 08:53:00,63.0,54.0,-100.00,WSW,240,9.0,17.0,74,0.00,,,-99.99,,2013-01-13 13:53:00,
2013-01-13 09:03:00,63.0,54.0,-100.00,SW,230,11.0,17.0,73,0.00,,,-99.99,,2013-01-13 14:03:00,
2013-01-13 09:12:00,63.0,54.0,-100.00,SW,220,9.0,16.0,72,0.00,,,-99.99,,2013-01-13 14:12:00,
2013-01-13 09:22:00,63.0,54.0,-100.00,SW,235,10.0,19.0,72,0.00,,,-99.99,,2013-01-13 14:22:00,
2013-01-13 09:33:00,63.0,54.0,-100.00,SW,230,12.0,17.0,72,0.00,,,-99.99,,2013-01-13 14:33:00,
2013-01-13 09:43:00,62.0,54.0,-100.00,SW,220,8.0,16.0,73,0.00,,,-99.99,,2013-01-13 14:43:00,
2013-01-13 09:52:00,62.0,54.0,-100.00,SW,230,7.0,16.0,73,0.00,,,-99.99,,2013-01-13 14:52:00,
2013-01-13 10:03:00,62.0,54.0,-100.00,SW,230,9.0,17.0,74,0.00,,,-99.99,,2013-01-13 15:03:00,
2013-01-13 10:12:00,62.0,54.0,-100.00,SW,215,6.0,14.0,74,0.00,,,-99.99,,2013-01-13 15:12:00,
2013-01-13 10:23:00,62.0,54.0,-100.00,SW,230,8.0,19.0,73,0.00,,,-99.99,,2013-01-13 15:23:00,
2013-01-13 10:33:00,63.0,54.0,-100.00,SW,215,11.0,19.0,73,0.00,,,-99.99,,2013-01-13 15:33:00,
2013-01-13 10:43:00,62.0,54.0,-100.00,SW,215,6.0,16.0,73,0.00,,,-99.99,,2013-01-13 15:43:00,
2013-01-13 10:52:00,62.0,54.0,-100.00,SW,230,6.0,13.0,74,0.00,,,-99.99,,2013-01-13 15:52:00,
2013-01-13 11:03:00,63.0,54.0,-100.00,SW,230,9.0,14.0,73,0.00,,,-99.99,,2013-01-13 16:03:00,
2013-01-13 11:12:00,63.0,54.0,-100.00,SW,220,8.0,14.0,72,0.00,,,-99.99,,2013-01-13 16:12:00,
2013-01-13 11:23:00,63.0,54.0,-100.00,SSW,210,10.0,16.0,72,0.00,,,-99.99,,2013-01-13 16:23:00,
2013-01-13 11:33:00,63.0,54.0,-100.00,SW,220,7.0,12.0,71,0.00,,,-99.99,,2013-01-13 16:33:00,
2013-01-13 11:43:00,63.0,54.0,-100.00,SW,230,8.0,17.0,71,0.00,,,-99.99,,2013-01-13 16:43:00,
2013-01-13 11:53:00,65.0,54.0,-100.00,SW,215,9.0,16.0,68,0.00,,,-99.99,,2013-01-13 16:53:00,
2013-01-13 12:03:00,64.0,53.0,-100.00,SW,215,10.0,21.0,69,0.00,,,-99.99,,2013-01-13 17:03:00,
2013-01-13 12:12:00,64.0,53.0,-100.00,SW,215,11.0,17.0,69,0.00,,,-99.99,,2013-01-13 17:12:00,
2013-01-13 12:22:00,64.0,53.0,-100.00,SW,215,6.0,16.0,68,0.00,,,-99.99,,2013-01-13 17:22:00,
2013-01-13 12:33:00,64.0,53.0,-100.00,SW,230,9.0,17.0,67,0.00,,,-99.99,,2013-01-13 17:33:00,
2013-01-13 12:42:00,64.0,53.0,-100.00,SW,230,9.0,19.0,68,0.00,,,-99.99,,2013-01-13 17:42:00,
2013-01-13 12:53:00,64.0,53.0,-100.00,SW,220,11.0,17.0,67,0.00,,,-99.99,,2013-01-13 17:53:00,
2013-01-13 13:03:00,64.0,53.0,-100.00,WSW,240,12.0,17.0,66,0.00,,,-99.99,,2013-01-13 18:03:00,
2013-01-13 13:12:00,65.0,53.0,-100.00,WSW,240,11.0,19.0,66,0.00,,,-99.99,,2013-01-13 18:12:00,
2013-01-13 13:23:00,65.0,53.0,-100.00,SW,225,10.0,16.0,64,0.00,,,-99.99,,2013-01-13 18:23:00,
2013-01-13 13:33:00,65.0,53.0,-100.00,SSW,195,8.0,16.0,64,0.00,,,-99.99,,2013-01-13 18:33:00,
2013-01-13 13:43:00,65.0,53.0,-100.00,South,175,7.0,16.0,65,0.00,,,-99.99,,2013-01-13 18:43:00,
2013-01-13 13:53:00,65.0,52.0,-100.00,SW,215,9.0,16.0,64,0.00,,,-99.99,,2013-01-13 18:53:00,
2013-01-13 14:03:00,64.0,53.0,-100.00,SSW,195,6.0,12.0,65,0.00,,,-99.99,,2013-01-13 19:03:00,
2013-01-13 14:12:00,64.0,52.0,-100.00,SSW,210,9.0,17.0,64,0.00,,,-99.99,,2013-01-13 19:12:00,
2013-01-13 14:22:00,64.0,52.0,-100.00,SSW,205,6.0,11.0,65,0.00,,,-99.99,,2013-01-13 19:22:00,
2013-01-13 14:33:00,64.0,52.0,-100.00,SSW,200,7.0,12.0,65,0.00,,,-99.99,,2013-01-13 19:33:00,
2013-01-13 14:43:00,64.0,52.0,-100.00,SSW,205,7.0,10.0,65,0.00,,,-99.99,,2013-01-13 19:43:00,
2013-01-13 14:52:00,64.0,52.0,-100.00,SW,225,6.0,14.0,66,0.00,,,-99.99,,2013-01-13 19:52:00,
2013-01-13 15:03:00,64.0,53.0,-100.00,SSW,200,5.0,9.0,66,0.00,,,-99.99,,2013-01-13 20:03:00,
2013-01-13 15:12:00,64.0,53.0,-100.00,SSW,205,7.0,12.0,67,0.00,,,-99.99,,2013-01-13 20:12:00,
2013-01-13 15:22:00,64.0,53.0,-100.00,South,190,2.0,12.0,68,0.00,,,-99.99,,2013-01-13 20:22:00,
2013-01-13 15:33:00,64.0,53.0,-100.00,SW,220,6.0,10.0,67,0.00,,,-99.99,,2013-01-13 20:33:00,
2013-01-13 15:43:00,64.0,53.0,-100.00,WSW,245,6.0,11.0,66,0.00,,,-99.99,,2013-01-13 20:43:00,
2013-01-13 15:53:00,64.0,52.0,-100.00,SW,220,9.0,14.0,65,0.00,,,-99.99,,2013-01-13 20:53:00,
2013-01-13 16:03:00,64.0,52.0,-100.00,SW,220,6.0,12.0,65,0.00,,,-99.99,,2013-01-13 21:03:00,
2013-01-13 16:12:00,64.0,52.0,-100.00,SW,220,6.0,11.0,66,0.00,,,-99.99,,2013-01-13 21:12:00,
2013-01-13 16:23:00,64.0,52.0,-100.00,SW,220,4.0,12.0,65,0.00,,,-99.99,,2013-01-13 21:23:00,
2013-01-13 16:33:00,63.0,52.0,-100.00,SW,225,6.0,12.0,65,0.00,,,-99.99,,2013-01-13 21:33:00,
2013-01-13 16:43:00,63.0,51.0,-100.00,SW,215,7.0,16.0,65,0.00,,,-99.99,,2013-01-13 21:43:00,
2013-01-13 16:52:00,63.0,51.0,-100.00,SW,220,9.0,14.0,65,0.00,,,-99.99,,2013-01-13 21:52:00,
2013-01-13 17:03:00,63.0,51.0,-100.00,SW,230,6.0,11.0,67,0.00,,,-99.99,,2013-01-13 22:03:00,
2013-01-13 17:12:00,62.0,51.0,-100.00,WSW,245,7.0,13.0,67,0.00,,,-99.99,,2013-01-13 22:12:00,
2013-01-13 17:22:00,62.0,51.0,-100.00,SW,225,4.0,11.0,68,0.00,,,-99.99,,2013-01-13 22:22:00,
2013-01-13 17:33:00,62.0,52.0,-100.00,SSW,210,2.0,9.0,69,0.00,,,-99.99,,2013-01-13 22:33:00,
2013-01-13 17:43:00,62.0,51.0,-100.00,SW,225,4.0,8.0,69,0.00,,,-99.99,,2013-01-13 22:43:00,
2013-01-13 17:52:00,61.0,51.0,-100.00,SW,225,4.0,9.0,70,0.00,,,-99.99,,2013-01-13 22:52:00,
2013-01-13 18:02:00,61.0,52.0,-100.00,SW,220,6.0,9.0,71,0.00,,,-99.99,,2013-01-13 23:02:00,
2013-01-13 18:12:00,61.0,52.0,-100.00,SW,235,6.0,9.0,72,0.00,,,-99.99,,2013-01-13 23:12:00,
2013-01-13 18:23:00,60.0,52.0,-100.00,WSW,250,8.0,12.0,72,0.00,,,-99.99,,2013-01-13 23:23:00,
2013-01-13 18:33:00,60.0,52.0,-100.00,WSW,250,7.0,12.0,73,0.00,,,-99.99,,2013-01-13 23:33:00,
2013-01-13 18:42:00,60.0,52.0,-100.00,SW,235,6.0,11.0,76,0.00,,,-99.99,,2013-01-13 23:42:00,
2013-01-13 18:52:00,59.0,52.0,-100.00,WSW,250,8.0,11.0,76,0.00,,,-99.99,,2013-01-13 23:52:00,
2013-01-13 19:03:00,59.0,53.0,-100.00,SW,235,10.0,16.0,78,0.55,,,-99.99,,2013-01-14 00:03:00,
2013-01-13 19:12:00,58.0,53.0,-100.00,WSW,240,6.0,16.0,81,1.10,,,-99.99,,2013-01-14 00:12:00,
2013-01-13 19:33:00,58.0,53.0,-100.00,WSW,250,7.0,12.0,83,0.00,,,-99.99,,2013-01-14 00:33:00,
2013-01-13 19:43:00,58.0,53.0,-100.00,WSW,240,7.0,14.0,83,0.00,,,-99.99,,2013-01-14 00:43:00,
2013-01-13 19:52:00,58.0,53.0,-100.00,SW,230,7.0,14.0,84,0.00,,,-99.99,,2013-01-14 00:52:00,
2013-01-13 20:03:00,57.0,53.0,-100.00,WSW,240,6.0,11.0,84,0.00,,,-99.99,,2013-01-14 01:03:00,
2013-01-13 20:12:00,57.0,53.0,-100.00,SW,220,4.0,12.0,85,0.00,,,-99.99,,2013-01-14 01:12:00,
2013-01-13 20:22:00,57.0,53.0,-100.00,South,175,4.0,10.0,85,0.55,,,-99.99,,2013-01-14 01:22:00,
2013-01-13 20:33:00,57.0,53.0,-100.00,SSW,195,4.0,10.0,85,0.55,,,-99.99,,2013-01-14 01:33:00,
2013-01-13 20:42:00,57.0,53.0,-100.00,SSW,205,4.0,11.0,85,0.55,,,-99.99,,2013-01-14 01:42:00,
2013-01-13 20:52:00,57.0,53.0,-100.00,SW,220,4.0,12.0,85,0.55,,,-99.99,,2013-01-14 01:52:00,
2013-01-13 21:03:00,57.0,53.0,-100.00,WSW,245,5.0,10.0,86,1.10,,,-99.99,,2013-01-14 02:03:00,
2013-01-13 21:12:00,56.0,53.0,-100.00,South,190,2.0,9.0,87,1.10,,,-99.99,,2013-01-14 02:12:00,
2013-01-13 21:22:00,56.0,53.0,-100.00,SSW,210,5.0,9.0,87,0.55,,,-99.99,,2013-01-14 02:22:00,
2013-01-13 21:33:00,56.0,53.0,-100.00,South,180,4.0,9.0,88,5.08,,,-99.99,,2013-01-14 02:33:00,
2013-01-13 21:42:00,56.0,53.0,-100.00,South,190,4.0,9.0,89,1.10,,,-99.99,,2013-01-14 02:42:00,
2013-01-13 21:53:00,56.0,53.0,-100.00,South,190,4.0,8.0,90,1.10,,,-99.99,,2013-01-14 02:53:00,
2013-01-13 22:03:00,56.0,53.0,-100.00,SE,145,5.0,9.0,90,0.00,,,-99.99,,2013-01-14 03:03:00,
2013-01-13 22:12:00,56.0,53.0,-100.00,South,175,5.0,9.0,90,0.00,,,-99.99,,2013-01-14 03:12:00,
2013-01-13 22:22:00,56.0,53.0,-100.00,South,175,4.0,12.0,90,0.00,,,-99.99,,2013-01-14 03:22:00,
2013-01-13 22:33:00,56.0,53.0,-100.00,SSW,195,6.0,11.0,89,0.00,,,-99.99,,2013-01-14 03:33:00,
2013-01-13 22:42:00,56.0,53.0,-100.00,South,190,6.0,11.0,88,0.00,,,-99.99,,2013-01-14 03:42:00,
2013-01-13 22:52:00,56.0,53.0,-100.00,WSW,240,7.0,12.0,87,0.00,,,-99.99,,2013-01-14 03:52:00,
2013-01-13 23:03:00,56.0,53.0,-100.00,SW,220,6.0,12.0,87,0.00,,,-99.99,,2013-01-14 04:03:00,
2013-01-13 23:12:00,56.0,53.0,-100.00,SW,215,5.0,13.0,87,0.00,,,-99.99,,2013-01-14 04:12:00,
2013-01-13 23:22:00,56.0,53.0,-100.00,SW,215,5.0,12.0,88,0.55,,,-99.99,,2013-01-14 04:22:00,
2013-01-13 23:32:00,57.0,53.0,-100.00,SW,225,6.0,12.0,88,0.00,,,-99.99,,2013-01-14 04:32:00,
2013-01-13 23:42:00,57.0,53.0,-100.00,WSW,245,9.0,16.0,87,0.00,,,-99.99,,2013-01-14 04:42:00,
2013-01-13 23:52:00,49.0,46.0,-100.00,NW,310,16.0,29.0,90,3.39,,,-99.99,,2013-01-14 04:52:00,